Regional Weather Roundup
Issued by NWS

Home | Current Version | Previous Version | Text Only | Print | Product List | Glossary Off
Versions: 1 2 3 4 5 6 7 8 9 10 11 12 13 14 15 16 17 18 19 20 21 22 23 24 25 26 27 28 29 30 31 32 33 34 35 36 37 38 39 40 41 42 43 44 45 46 47 48 49 50

000
ASUS43 KLMK 210810
RWRKY
KENTUCKY REGIONAL WEATHER ROUNDUP
NATIONAL WEATHER SERVICE LOUISVILLE KY
300 AM EST WED FEB 21 2018

NOTE "FAIR" INDICATES FEW OR NO CLOUDS BELOW 12,000 FEET
WITH NO SIGNIFICANT WEATHER AND/OR OBSTRUCTIONS TO VISIBILITY.

KYZ001>023-026-027-061>063-070>075-210900-
WESTERN AND SOUTH CENTRAL KENTUCKY

CITY           SKY/WX    TMP DP  RH WIND       PRES   REMARKS
PADUCAH        LGT RAIN  48  46  93 N10       30.14F
HENDERSON      RAIN      46  46 100 NW12      30.20R
OWENSBORO      CLOUDY    61  54  77 NW21G30   30.15R
HOPKINSVILLE   FAIR      71  61  70 S16G26    30.12S
BOWLING GREEN  FAIR      71  63  75 S22G35    30.14F
GLASGOW        FAIR      69  60  73 S14G22    30.17F
$$

KYZ024-025-028>034-038-045-046-053-210900-
NORTH CENTRAL KENTUCKY

CITY           SKY/WX    TMP DP  RH WIND       PRES   REMARKS
LOUISVILLE/SDF FAIR      70  60  70 S15G26    30.10R
LOUISVILLE/LOU FAIR      70  61  73 S17G30    30.11R
FORT KNOX      FAIR      69  60  73 S16G26    30.11S
$$

KYZ035>037-039>044-047>052-055>060-089>105-210900-
NORTHEAST KENTUCKY

CITY           SKY/WX    TMP DP  RH WIND       PRES   REMARKS
LEXINGTON      FAIR      68  58  70 S17G30    30.16S
COVINGTON      FAIR      66  59  78 S16G23    30.10F
FRANKFORT      FAIR      69  57  65 S15G25    30.13S
$$

KYZ054-064>069-076>088-106>120-210900-
SOUTHEAST KENTUCKY

CITY           SKY/WX    TMP DP  RH WIND       PRES   REMARKS
JACKSON        FAIR      66  51  58 VRB6      30.24F
LONDON         FAIR      67  57  70 S9        30.24F
SOMERSET       FAIR      66  57  72 MISG      30.24F
MIDDLESBORO    CLOUDY    65  56  70 S5        30.31S
MONTICELLO     NOT AVBL
$$





USA.gov is the U.S. government's official web portal to all federal, state and local government web resources and services.